This is the latest recevied weather packets stored in our database for station/object KB2M. If no packets are shown the sender has not sent any weather packets the latest 10 day(s).
| Time | Temp. | Humidity | Pressure | Rain* | Wind** | Luminosity | Snow |
|---|---|---|---|---|---|---|---|
| 1777517205 | 24.44° C | 69% | 1014.5 hPa | 0 mm | - | - | - |
| 1777516575 | 25° C | 69% | 1014.2 hPa | 0 mm | - | - | - |
| 1777515975 | 25° C | 69% | 1013.8 hPa | 0 mm | - | - | - |
| 1777515345 | 25° C | 70% | 1013.8 hPa | 0 mm | - | - | - |
| 1777514745 | 24.44° C | 72% | 1013.8 hPa | 0 mm | - | - | - |
| 1777514115 | 24.44° C | 75% | 1013.8 hPa | 0 mm | - | - | - |
| 1777513515 | 24.44° C | 79% | 1013.8 hPa | 0 mm | - | - | - |
| 1777512885 | 24.44° C | 80% | 1014.2 hPa | 0 mm | - | - | - |
| 1777512285 | 24.44° C | 80% | 1013.8 hPa | 0 mm | - | - | - |
| 1777511685 | 24.44° C | 79% | 1013.5 hPa | 0 mm | - | - | - |
| 1777511085 | 24.44° C | 78% | 1013.2 hPa | 0 mm | - | - | - |
| 1777510484 | 24.44° C | 78% | 1013.2 hPa | 0 mm | - | - | - |
| 1777509883 | 25° C | 78% | 1013.2 hPa | 0 mm | - | - | - |
| 1777509253 | 25° C | 78% | 1013.2 hPa | 0 mm | - | - | - |
| 1777508653 | 25° C | 78% | 1012.5 hPa | 0 mm | - | - | - |
| 1777508023 | 25° C | 78% | 1012.5 hPa | 0 mm | - | - | - |
| 1777507393 | 25° C | 77% | 1012.1 hPa | 0 mm | - | - | - |
| 1777506793 | 25.56° C | 75% | 1012.1 hPa | 0 mm | - | - | - |
| 1777506193 | 25.56° C | 73% | 1012.1 hPa | 0 mm | - | - | - |
| 1777505593 | 25.56° C | 74% | 1012.1 hPa | 0 mm | - | - | - |
| 1777504993 | 25.56° C | 75% | 1012.1 hPa | 0 mm | - | - | - |
| 1777504363 | 26.11° C | 74% | 1012.1 hPa | 0 mm | - | - | - |
| 1777503763 | 26.11° C | 73% | 1012.1 hPa | 0 mm | - | - | - |
| 1777503163 | 26.11° C | 74% | 1012.1 hPa | 0 mm | - | - | - |
| 1777502563 | 26.11° C | 74% | 1012.1 hPa | 0 mm | - | - | - |
* Rain latest hour (hover to see other rain measurements)
** Current wind speed in m/s (hover to see current wind gust speed)